Weather Roundup
Issued by NWS Springfield, MO

Home | Current Version | Previous Version | Text Only | Print | Product List | Glossary On
Versions: 1 2 3 4 5 6 7 8 9 10 11 12 13 14 15 16 17 18 19 20 21 22 23 24 25 26 27 28 29 30 31 32 33 34 35 36 37 38 39 40 41 42 43 44 45 46 47 48 49 50
000
NZUS99 KSGF 202157
HRRSGF

HOURLY WEATHER
NATIONAL WEATHER SERVICE SPRINGFIELD MO
500 PM CDT SUN MAY 20 2018

......SGF CWA......

CITY           SKY/WX    TMP DP  RH WIND       PRES   REMARKS
SPRINGFIELD    CLOUDY    80  67  64 S7        30.00F
JOPLIN         LGT RAIN  67  65  93 SE8       30.02F
WEST PLAINS    SUNNY     81  67  62 E9        30.04F
ROLLA          SUNNY     78  65  63 E8        30.05S
BRANSON        PTSUNNY   82  70  65 E8        30.00F

......SURROUNDING SGF CWA......

CITY           SKY/WX    TMP DP  RH WIND       PRES   REMARKS
CHANUTE        CLOUDY    68  64  87 N5        30.02F
PARSONS        CLOUDY    71  65  81 N9        30.03F
COFFEYVILLE    MOSUNNY   71  65  81 N7        30.02S
EMPORIA        CLOUDY    63  60  90 NW9       30.04S
HARRISON AR    PTSUNNY   83  69  62 S7        29.99F

......KANSAS AND MISSOURI......

CITY           SKY/WX    TMP DP  RH WIND       PRES   REMARKS
KANSAS CTY INT RAIN      68  64  87 CALM      30.05S FOG
SEDALIA        MOSUNNY   80  67  64 E7        30.03F
ST JOSEPH      LGT RAIN  68  65  90 S7        30.05R
ST LOUIS       PTSUNNY   79  66  64 E7        30.04F
WICHITA        CLOUDY    67  58  72 NW7       30.06F
TOPEKA         LGT RAIN  66  66 100 NW6       30.03F
OLATHE         LGT RAIN  68  65  90 NW5       30.03F

......TENNESSEE......

CITY           SKY/WX    TMP DP  RH WIND       PRES   REMARKS
MEMPHIS        NOT AVBL
NASHVILLE      PTSUNNY   86  67  52 E12       30.04F THUNDER

......ARKANSAS.......

CITY           SKY/WX    TMP DP  RH WIND       PRES   REMARKS
FAYETTEVILLE   MOSUNNY   83  62  49 S14       30.00F
FT SMITH       LGT RAIN  86  65  49 S8        29.95F
LITTLE ROCK    FAIR      90  69  50 S10       29.95F HX  94

......OKLAHOMA.......

CITY           SKY/WX    TMP DP  RH WIND       PRES   REMARKS
TULSA          CLOUDY    76  64  66 NW3       30.00F
PONCA CITY     CLOUDY    66  58  75 NW9       30.05F
MCALESTER      CLOUDY    81  65  58 SW7       30.00S
OKLAHOMA CITY  PTSUNNY   71  58  63 NW3       30.04F

......IOWA............

CITY           SKY/WX    TMP DP  RH WIND       PRES   REMARKS
DES MOINES     NOT AVBL
QUAD CITIES    CLOUDY    64  55  72 NE13      30.09R

......ILLINOIS........

CITY           SKY/WX    TMP DP  RH WIND       PRES   REMARKS
QUINCY         CLOUDY    77  63  61 CALM      30.05F
CHICAGO        CLOUDY    49  42  77 N15       30.16F





USA.gov is the U.S. government's official web portal to all federal, state and local government web resources and services.